This demonstration page uses our WeatherBlox Daily Observations layout. Learn more.

Left ArrowRight Arrow

44.8408, -93.29828

Hourly Observations for January 2, 2020

Temp ( °F °C ) Dew Point ( °F °C ) Humidity (%) Winds ( mph kmh ) Pressure ( in mb ) Visibility ( mi km ) Precip ( " mm )
12:53 am 00:53 Cloudy 35 1.7 28 -2.2 76 76 SW 5 7 29.29 992 10 16 0.00 0.00
1:53 am 01:53 Cloudy 35 1.7 28 -2.2 76 76 SW 6 9 29.30 992 10 16 0.00 0.00
2:53 am 02:53 Cloudy 35 1.7 28 -2.2 76 76 SSW 7 11 29.31 992 10 16 0.00 0.00
3:53 am 03:53 Cloudy 34 1.1 28 -2.2 79 79 WSW 5 7 29.33 993 10 16 0.00 0.00
4:53 am 04:53 Cloudy 34 1.1 28 -2.2 79 79 WSW 8 13 29.34 994 10 16 0.00 0.00
5:53 am 05:53 Cloudy 34 1.1 28 -2.2 79 79 WSW 7 11 29.36 994 10 16 0.00 0.00
6:53 am 06:53 Cloudy 34 1.1 28 -2.2 79 79 WSW 8 13 29.38 995 10 16 0.00 0.00
7:53 am 07:53 Cloudy 34 1.1 29 -1.7 82 82 WSW 7 11 29.40 996 10 16 0.00 0.00
8:13 am 08:13 Cloudy 34 1.1 29 -1.7 82 82 WSW 7 11 29.43 997 10 16 0.00 0.00
8:17 am 08:17 Cloudy 34 1.1 29 -1.7 82 82 WSW 6 9 29.43 997 10 16 0.00 0.00
8:53 am 08:53 Cloudy 35 1.7 30 -1.1 82 82 W 7 11 29.44 997 10 16 0.00 0.00
9:53 am 09:53 Cloudy 36 2.2 31 -0.6 82 82 W 8 13 29.48 998 10 16 0.00 0.00
10:53 am 10:53 Cloudy 36 2.2 31 -0.6 82 82 W 10 17 29.50 999 10 16 0.00 0.00
11:53 am 11:53 Cloudy 37 2.8 31 -0.6 79 79 W 8 13 29.52 1000 10 16 0.00 0.00
12:18 pm 12:18 Cloudy 37 2.8 31 -0.6 79 79 W 13 20 29.53 1000 10 16 0.00 0.00
12:53 pm 12:53 Cloudy 36 2.2 29 -1.7 76 76 WNW 9 15 29.52 1000 10 16 0.00 0.00
1:53 pm 13:53 Cloudy 35 1.7 27 -2.8 72 72 NW 13 20 29.56 1001 10 16 0.00 0.00
2:53 pm 14:53 Cloudy 33 0.6 25 -3.9 72 72 NNW 15 24 29.58 1002 10 16 0.00 0.00
3:53 pm 15:53 Cloudy 32 0 24 -4.4 73 73 NW 10 17 29.62 1003 10 16 0.00 0.00
4:53 pm 16:53 Cloudy 32 0 24 -4.4 73 73 NNW 8 13 29.65 1004 10 16 0.00 0.00
5:53 pm 17:53 Cloudy 31 -0.6 23 -5 72 72 NNW 9 15 29.68 1005 10 16 0.00 0.00
6:53 pm 18:53 Cloudy 32 0 24 -4.4 73 73 Calm 29.69 1005 10 16 0.00 0.00
7:53 pm 19:53 Cloudy 32 0 24 -4.4 73 73 SW 5 7 29.70 1006 10 16 0.00 0.00
8:53 pm 20:53 Cloudy 32 0 25 -3.9 75 75 SW 8 13 29.72 1007 10 16 0.00 0.00
9:53 pm 21:53 Cloudy 32 0 26 -3.3 79 79 WSW 7 11 29.75 1007 10 16 0.00 0.00
10:53 pm 22:53 Cloudy 32 0 26 -3.3 79 79 WSW 8 13 29.76 1008 10 16 0.00 0.00
11:27 pm 23:27 Cloudy 32 0 26 -3.3 79 79 SW 7 11 29.78 1008 10 16 0.00 0.00
11:44 pm 23:44 Cloudy 32 0 26 -3.3 79 79 WSW 7 11 29.78 1008 10 16 0.00 0.00
11:53 pm 23:53 Cloudy 32 0 26 -3.3 79 79 WSW 7 11 29.76 1008 10 16 0.00 0.00

Powered by AerisWeather